Location: Saratoga Springs
(43.0831°N, 73.7850°W)
Time: 12:16:09
(UTC-04:00)

Transit 4A - Pass Details

Date: 17 April 2024
Orbit: 871 x 971 km, 66.8° (Epoch: 20 May)

Event Time Altitude Azimuth Distance (km) Brightness Sun altitude
Rises 00:39:43 0° 315° (NW) 3,467 11.5 -36.2°
Reaches altitude 10° 00:42:47 10° 300° (WNW) 2,527 10.5 -36.2°
Enters shadow 00:44:05 15° 289° (WNW) 2,214 10.0 -36.2°
